Location: Vojnic
(45.3264°N, 15.6972°E)
Time: 12:58:21
(UTC+01:00)

USA 238 DEB - Pass Details

Date: 03 October 2022
Orbit: 955 x 1257 km, 63.4° (Epoch: 25 November)

Event Time Altitude Azimuth Distance (km) Brightness Sun altitude
Exits shadow 04:52:22 - 184° (S) 3,100 5.9 -22.5°
Reaches altitude 10° 04:53:33 10° 180° (S) 2,705 5.6 -22.3°
Maximum altitude 04:59:15 37° 115° (ESE) 1,505 4.9 -21.4°
Drops below altitude 10° 05:05:18 10° 51° (NE) 2,864 6.9 -20.4°
Sets 05:08:12 0° 43° (NE) 3,869 7.6 -19.9°
